Regional Weather Roundup
Issued by NWS

Home | Current Version | Previous Version | Graphics & Text | Print | Product List | Glossary On
Versions: 1 2 3 4 5 6 7 8 9 10 11 12 13 14 15 16 17 18 19 20 21 22 23 24 25 26 27 28 29 30 31 32 33 34 35 36 37 38 39 40 41 42 43 44 45 46 47 48 49 50
000
ASUS45 KABQ 280610
RWRNM
WEATHER ROUNDUP FOR NEW MEXICO
NATIONAL WEATHER SERVICE ALBUQUERQUE NM
1100 PM MST THU NOV 27 2014

NOTE: "FAIR" MEANS FEW OR NO CLOUDS BELOW 12,000 FEET AGL WITH NO
       SIGNIFICANT WEATHER OR OBSTRUCTIONS TO VISION.

      THIS PRODUCT IS RELEASED AS TWO VERSIONS.  ONE VERSION NEAR
      THE TOP OF THE HOUR CONTAINING PRELIMINARY DATA FROM ALBUQUERQUE
      AND OTHER STATIONS.  A FINAL VERSION WITH ADDITIONAL DATA IS
      ISSUED ABOUT 10 MINUTES AFTER THE HOUR.

NMZ501-503-504-510>518-280700-
NORTHWEST PLATEAU/NORTHCENTRAL MOUNTAINS

CITY           SKY/WX    TMP DP  RH WIND       PRES   REMARKS
FARMINGTON     CLEAR     30  18  60 NE7       30.33S WCI  23
6HR MIN TEMP:  29; 6HR MAX TEMP:  50;

LOS ALAMOS     PTCLDY    45  19  35 CALM      30.37S
SANTA FE       PTCLDY    29  17  61 N5        30.34F WCI  24
6HR MIN TEMP:  29; 6HR MAX TEMP:  51;

TAOS           MOCLDY    32  21  64 CALM      30.36F
ANGEL FIRE     FAIR      18  13  83 CALM      30.39F

$$
NMZ402-403-502-505>509-280700-
WESTCENTRAL MOUNTAINS/SOUTHWEST MOUNTAINS

CITY           SKY/WX    TMP DP  RH WIND       PRES   REMARKS
GALLUP         MOCLDY    30   9  41 CALM      30.36F
6HR MIN TEMP:  27; 6HR MAX TEMP:  55;

GRANTS         PTCLDY    27   7  43 NW10      30.38F WCI  17
SILVER CITY    CLEAR     37  19  48 N8        30.36F WCI  31

$$
NMZ407-409-411-412-280700-
SOUTHERN DESERTS

CITY           SKY/WX    TMP DP  RH WIND       PRES   REMARKS
LORDSBURG      FAIR      37  19  48 SE3       30.30F
DEMING         PTCLDY    38  19  46 NW5       30.31F WCI  34
6HR MIN TEMP:  37; 6HR MAX TEMP:  63;

LAS CRUCES     CLEAR     41  20  43 CALM      30.32S
HOLLOMAN AFB   CLEAR     40  21  47 E6        30.30S
ALAMOGORDO     CLEAR     41  19  42 E6        30.31F
T OR C         CLEAR     43  19  38 W8        30.32S
6HR MIN TEMP:  42; 6HR MAX TEMP:  62;


$$
NMZ519>523-280700-
CENTRAL VALLEYS/CENTRAL HIGHLANDS

CITY           SKY/WX    TMP DP  RH WIND       PRES   REMARKS
ALBUQUERQUE    PTCLDY    43  20  39 E3        30.33F
6HR MIN TEMP:  38; 6HR MAX TEMP:  56;

DOUBLE EAGLE   PTCLDY    33  15  49 CALM      30.34F
MORIARTY ARPT  FAIR      21  17  84 N7        30.36F WCI  13
6HR MIN TEMP:  21; 6HR MAX TEMP:  50;

CLINES CORNERS PTCLDY    39  19  44 W13       30.33F WCI  31
6HR MIN TEMP:  34; 6HR MAX TEMP:  47;

BELEN          FAIR      32  15  50 NE3       30.33S
6HR MIN TEMP:  32; 6HR MAX TEMP:  55;

SOCORRO        FAIR      37  19  47 SW3       30.32F
6HR MIN TEMP:  37; 6HR MAX TEMP:  58;


$$
NMZ524>526-539-540-280700-
SOUTHCENTRAL MOUNTAINS

CITY           SKY/WX    TMP DP  RH WIND       PRES   REMARKS
RUIDOSO        CLEAR     45  10  24 W9        30.37F

$$
NMZ527>531-280700-
NORTHEAST HIGHLANDS/NORTHEAST PLAINS

CITY           SKY/WX    TMP DP  RH WIND       PRES   REMARKS
LAS VEGAS      MOCLDY    50   8  18 S6        30.29F
6HR MIN TEMP:  44; 6HR MAX TEMP:  58;

RATON          MOCLDY    33  20  58 N8        30.25S WCI  26
6HR MIN TEMP:  30; 6HR MAX TEMP:  46;

CLAYTON        CLOUDY    50  20  30 W13       30.13F
6HR MIN TEMP:  43; 6HR MAX TEMP:  52;


$$
NMZ532>537-280700-
EASTCENTRAL PLAINS

CITY           SKY/WX    TMP DP  RH WIND       PRES   REMARKS
TUCUMCARI      PTCLDY    43  28  55 W8        30.19S
6HR MIN TEMP:  42; 6HR MAX TEMP:  57;

CANNON AFB     CLEAR     41  28  59 W8        30.23F
6HR MIN TEMP:  38; 6HR MAX TEMP:  52;

CLOVIS AIRPORT CLEAR     36  25  64 SW8       30.23S WCI  29

$$
NMZ028-029-538-280700-
SOUTHEAST PLAINS

CITY           SKY/WX    TMP DP  RH WIND       PRES   REMARKS
ROSWELL        PTCLDY    34  27  75 CALM      30.25F
6HR MIN TEMP:  34; 6HR MAX TEMP:  53;

CARLSBAD       CLEAR     38  29  70 S6        30.25F WCI  33
6HR MIN TEMP:  38; 6HR MAX TEMP:  55;

HOBBS          PTCLDY    39  28  65 S9        30.28F WCI  33


$$


USA.gov is the U.S. government's official web portal to all federal, state and local government web resources and services.